| time (UTC) | temp F | wind direction | speed MPH | gust MPH | rain 1hr in | rain 24hr in | rain mn in | humidity % | barometer mb |
| 20260505113856 | 60 | 240 | 0.0 | 3.0 | 0.00 | 0.00 | 0.00 | 76 | 1009.0 |
| 20260505113357 | 59 | 240 | 1.0 | 6.0 | 0.00 | 0.00 | 0.00 | 76 | 1009.0 |
| 20260505112902 | 59 | 241 | 2.0 | 6.0 | 0.00 | 0.00 | 0.00 | 77 | 1008.9 |
| 20260505112346 | 58 | 225 | 2.0 | 4.0 | 0.00 | 0.00 | 0.00 | 78 | 1008.9 |
| 20260505111850 | 58 | 222 | 1.0 | 5.0 | 0.00 | 0.00 | 0.00 | 79 | 1008.9 |
| 20260505111355 | 57 | 250 | 0.0 | 4.0 | 0.00 | 0.00 | 0.00 | 80 | 1008.9 |
| 20260505110901 | 57 | 252 | 1.0 | 5.0 | 0.00 | 0.00 | 0.00 | 81 | 1008.9 |
| 20260505110420 | 56 | 244 | 1.0 | 6.0 | 0.00 | 0.00 | 0.00 | 82 | 1008.9 |
| 20260505101858 | 52 | 239 | 0.0 | 0.0 | 0.00 | 0.00 | 0.00 | 85 | 1008.9 |
| 20260505101342 | 52 | 239 | 0.0 | 0.0 | 0.00 | 0.00 | 0.00 | 85 | 1008.8 |
| 20260505100849 | 52 | 239 | 0.0 | 0.0 | 0.00 | 0.00 | 0.00 | 85 | 1008.8 |
| 20260505100348 | 52 | 239 | 0.0 | 0.0 | 0.00 | 0.00 | 0.00 | 85 | 1008.9 |
| 20260505095901 | 52 | 239 | 0.0 | 2.0 | 0.00 | 0.00 | 0.00 | 85 | 1008.9 |
| 20260505095345 | 52 | 239 | 0.0 | 2.0 | 0.00 | 0.00 | 0.00 | 84 | 1008.9 |
| 20260505094911 | 52 | 239 | 1.0 | 2.0 | 0.00 | 0.00 | 0.00 | 84 | 1008.9 |
| 20260505094416 | 52 | 239 | 0.0 | 1.0 | 0.00 | 0.00 | 0.00 | 84 | 1008.9 |
| 20260505093901 | 52 | 239 | 0.0 | 2.0 | 0.00 | 0.00 | 0.00 | 84 | 1008.9 |
| 20260505093344 | 52 | 239 | 1.0 | 2.0 | 0.00 | 0.00 | 0.00 | 84 | 1008.9 |
| 20260505092851 | 52 | 239 | 0.0 | 2.0 | 0.00 | 0.00 | 0.00 | 84 | 1008.9 |
| 20260505092356 | 52 | 239 | 0.0 | 3.0 | 0.00 | 0.00 | 0.00 | 84 | 1008.9 |
| 20260505091900 | 52 | 239 | 0.0 | 3.0 | 0.00 | 0.00 | 0.00 | 84 | 1008.9 |
| 20260505091345 | 52 | 239 | 0.0 | 4.0 | 0.00 | 0.00 | 0.00 | 84 | 1008.9 |
| 20260505090852 | 52 | 239 | 1.0 | 4.0 | 0.00 | 0.00 | 0.00 | 84 | 1009.0 |
| 20260505090355 | 52 | 239 | 0.0 | 3.0 | 0.00 | 0.00 | 0.00 | 83 | 1009.0 |
| 20260505085847 | 52 | 239 | 0.0 | 3.0 | 0.00 | 0.00 | 0.00 | 83 | 1009.0 |
| 20260505085353 | 52 | 239 | 0.0 | 3.0 | 0.00 | 0.00 | 0.00 | 83 | 1009.0 |
| 20260505084919 | 51 | 239 | 0.0 | 3.0 | 0.00 | 0.00 | 0.00 | 83 | 1009.0 |
| 20260505084402 | 51 | 239 | 0.0 | 3.0 | 0.00 | 0.00 | 0.00 | 83 | 1009.1 |
| 20260505083846 | 51 | 239 | 0.0 | 3.0 | 0.00 | 0.00 | 0.00 | 83 | 1009.1 |
| 20260505083409 | 51 | 239 | 0.0 | 5.0 | 0.00 | 0.00 | 0.00 | 83 | 1009.2 |
| 20260505082852 | 51 | 239 | 1.0 | 5.0 | 0.00 | 0.00 | 0.00 | 83 | 1009.2 |
| 20260505082357 | 51 | 255 | 2.0 | 4.0 | 0.00 | 0.00 | 0.00 | 82 | 1009.2 |
| 20260505081900 | 51 | 260 | 1.0 | 2.0 | 0.00 | 0.00 | 0.00 | 82 | 1009.2 |
| 20260505081345 | 51 | 260 | 0.0 | 2.0 | 0.00 | 0.00 | 0.00 | 81 | 1009.1 |
| 20260505080845 | 51 | 260 | 0.0 | 1.0 | 0.00 | 0.00 | 0.00 | 80 | 1009.2 |
| 20260505080347 | 51 | 260 | 0.0 | 0.0 | 0.00 | 0.00 | 0.00 | 80 | 1009.2 |
| 20260505075900 | 51 | 260 | 0.0 | 0.0 | 0.00 | 0.00 | 0.00 | 80 | 1009.1 |
| 20260505075344 | 51 | 260 | 0.0 | 0.0 | 0.00 | 0.00 | 0.00 | 79 | 1009.2 |
| 20260505074848 | 52 | 260 | 0.0 | 0.0 | 0.00 | 0.00 | 0.00 | 79 | 1009.2 |
| 20260505074356 | 52 | 260 | 0.0 | 0.0 | 0.00 | 0.00 | 0.00 | 78 | 1009.2 |
| 20260505073922 | 52 | 260 | 0.0 | 0.0 | 0.00 | 0.00 | 0.00 | 78 | 1009.3 |
| 20260505073344 | 52 | 260 | 0.0 | 0.0 | 0.00 | 0.00 | 0.00 | 77 | 1009.3 |
| 20260505072912 | 52 | 260 | 0.0 | 0.0 | 0.00 | 0.00 | 0.00 | 77 | 1009.3 |
| 20260505072357 | 52 | 260 | 0.0 | 0.0 | 0.00 | 0.00 | 0.00 | 77 | 1009.2 |
| 20260505071857 | 53 | 260 | 0.0 | 0.0 | 0.00 | 0.00 | 0.00 | 76 | 1009.3 |
| 20260505071401 | 53 | 260 | 0.0 | 1.0 | 0.00 | 0.00 | 0.00 | 76 | 1009.4 |
| 20260505070848 | 53 | 260 | 0.0 | 1.0 | 0.00 | 0.00 | 0.00 | 76 | 1009.3 |
| 20260505070350 | 53 | 260 | 0.0 | 1.0 | 0.00 | 0.00 | 0.00 | 75 | 1009.4 |
| 20260505065843 | 53 | 260 | 0.0 | 3.0 | 0.00 | 0.00 | 0.00 | 75 | 1009.4 |
| 20260505065411 | 53 | 260 | 0.0 | 3.0 | 0.00 | 0.00 | 0.00 | 75 | 1009.4 |
| 20260505064853 | 53 | 259 | 1.0 | 2.0 | 0.00 | 0.00 | 0.00 | 74 | 1009.4 |
| 20260505064357 | 54 | 259 | 0.0 | 0.0 | 0.00 | 0.00 | 0.00 | 74 | 1009.4 |
| 20260505063901 | 54 | 259 | 0.0 | 5.0 | 0.00 | 0.00 | 0.00 | 74 | 1009.5 |
| 20260505063344 | 54 | 259 | 0.0 | 5.0 | 0.00 | 0.00 | 0.00 | 74 | 1009.5 |
| 20260505062850 | 54 | 237 | 1.0 | 4.0 | 0.00 | 0.00 | 0.00 | 74 | 1009.5 |
| 20260505062357 | 54 | 237 | 0.0 | 4.0 | 0.00 | 0.00 | 0.00 | 73 | 1009.4 |
| 20260505061901 | 54 | 238 | 2.0 | 4.0 | 0.00 | 0.00 | 0.00 | 73 | 1009.4 |
| 20260505061349 | 54 | 240 | 2.0 | 5.0 | 0.00 | 0.00 | 0.00 | 73 | 1009.3 |
| 20260505060856 | 54 | 240 | 2.0 | 5.0 | 0.00 | 0.00 | 0.00 | 73 | 1009.4 |
| 20260505060357 | 54 | 265 | 0.0 | 5.0 | 0.00 | 0.00 | 0.00 | 72 | 1009.4 |
| 20260505055848 | 54 | 265 | 0.0 | 5.0 | 0.00 | 0.00 | 0.00 | 72 | 1009.4 |
| 20260505055414 | 54 | 263 | 1.0 | 5.0 | 0.00 | 0.00 | 0.00 | 72 | 1009.4 |
| 20260505054858 | 55 | 263 | 0.0 | 5.0 | 0.00 | 0.00 | 0.00 | 72 | 1009.4 |
| 20260505054345 | 55 | 264 | 1.0 | 5.0 | 0.00 | 0.00 | 0.00 | 71 | 1009.4 |
| 20260505053852 | 55 | 266 | 0.0 | 4.0 | 0.00 | 0.00 | 0.00 | 71 | 1009.5 |
| 20260505053355 | 55 | 265 | 1.0 | 4.0 | 0.00 | 0.00 | 0.00 | 71 | 1009.5 |
| 20260505052901 | 55 | 237 | 1.0 | 4.0 | 0.00 | 0.00 | 0.00 | 70 | 1009.4 |
| 20260505052348 | 55 | 237 | 0.0 | 6.0 | 0.00 | 0.00 | 0.00 | 70 | 1009.4 |
| 20260505051853 | 55 | 237 | 1.0 | 6.0 | 0.00 | 0.00 | 0.00 | 70 | 1009.4 |
| 20260505051418 | 55 | 233 | 1.0 | 5.0 | 0.00 | 0.00 | 0.00 | 70 | 1009.4 |
| 20260505050844 | 55 | 234 | 1.0 | 7.0 | 0.00 | 0.00 | 0.00 | 69 | 1009.4 |
| 20260505050404 | 56 | 224 | 1.0 | 7.0 | 0.00 | 0.00 | 0.00 | 69 | 1009.5 |
| 20260505041357 | 56 | 232 | 2.0 | 6.0 | 0.00 | 0.00 | 0.00 | 66 | 1009.5 |
| 20260505040842 | 56 | 247 | 2.0 | 6.0 | 0.00 | 0.00 | 0.00 | 66 | 1009.5 |
| 20260505040403 | 57 | 229 | 2.0 | 6.0 | 0.00 | 0.00 | 0.00 | 65 | 1009.5 |
| 20260505035908 | 57 | 241 | 2.0 | 5.0 | 0.00 | 0.00 | 0.00 | 65 | 1009.6 |
| 20260505035414 | 57 | 223 | 1.0 | 5.0 | 0.00 | 0.00 | 0.00 | 64 | 1009.5 |
| 20260505034857 | 57 | 219 | 2.0 | 6.0 | 0.00 | 0.00 | 0.00 | 64 | 1009.4 |
| 20260505034342 | 57 | 223 | 1.0 | 7.0 | 0.00 | 0.00 | 0.00 | 64 | 1009.4 |
| 20260505033849 | 57 | 236 | 3.0 | 7.0 | 0.00 | 0.00 | 0.00 | 63 | 1009.4 |
| 20260505033353 | 57 | 294 | 2.0 | 7.0 | 0.00 | 0.00 | 0.00 | 63 | 1009.3 |
| 20260505032858 | 57 | 290 | 2.0 | 10.0 | 0.00 | 0.00 | 0.00 | 62 | 1009.3 |
| 20260505032345 | 58 | 237 | 3.0 | 11.0 | 0.00 | 0.00 | 0.00 | 62 | 1009.3 |
| 20260505031910 | 58 | 230 | 3.0 | 9.0 | 0.00 | 0.00 | 0.00 | 62 | 1009.2 |
| 20260505031355 | 58 | 225 | 3.0 | 9.0 | 0.00 | 0.00 | 0.00 | 61 | 1009.2 |
| 20260505030922 | 58 | 229 | 3.0 | 9.0 | 0.00 | 0.00 | 0.00 | 60 | 1009.3 |
| 20260505030400 | 58 | 277 | 3.0 | 6.0 | 0.00 | 0.00 | 0.00 | 60 | 1009.3 |
| 20260505025849 | 58 | 271 | 3.0 | 6.0 | 0.00 | 0.00 | 0.00 | 60 | 1009.2 |
| 20260505025354 | 58 | 261 | 1.0 | 6.0 | 0.00 | 0.00 | 0.00 | 59 | 1009.3 |
| 20260505024852 | 58 | 256 | 3.0 | 6.0 | 0.00 | 0.00 | 0.00 | 58 | 1009.4 |
| 20260505024354 | 59 | 229 | 3.0 | 6.0 | 0.00 | 0.00 | 0.00 | 58 | 1009.4 |
| 20260505023859 | 59 | 339 | 1.0 | 7.0 | 0.00 | 0.00 | 0.00 | 57 | 1009.4 |
| 20260505023346 | 59 | 227 | 5.0 | 8.0 | 0.00 | 0.00 | 0.00 | 57 | 1009.3 |
| 20260505022850 | 59 | 286 | 2.0 | 8.0 | 0.00 | 0.00 | 0.00 | 57 | 1009.4 |
| 20260505022355 | 59 | 244 | 2.0 | 8.0 | 0.00 | 0.00 | 0.00 | 56 | 1009.4 |
| 20260505021900 | 59 | 244 | 3.0 | 9.0 | 0.00 | 0.00 | 0.00 | 56 | 1009.4 |
| 20260505021346 | 59 | 236 | 3.0 | 8.0 | 0.00 | 0.00 | 0.00 | 55 | 1009.4 |
| 20260505020850 | 60 | 333 | 4.0 | 9.0 | 0.00 | 0.00 | 0.00 | 55 | 1009.3 |
| 20260505020351 | 60 | 221 | 3.0 | 9.0 | 0.00 | 0.00 | 0.00 | 55 | 1009.2 |
| 20260505015920 | 60 | 223 | 2.0 | 11.0 | 0.00 | 0.00 | 0.00 | 54 | 1009.2 |
| 20260505015345 | 60 | 188 | 5.0 | 11.0 | 0.00 | 0.00 | 0.00 | 54 | 1009.1 |
| 20260505014851 | 60 | 226 | 3.0 | 8.0 | 0.00 | 0.00 | 0.00 | 53 | 1009.2 |
| 20260505014357 | 60 | 273 | 4.0 | 9.0 | 0.00 | 0.00 | 0.00 | 53 | 1009.2 |
| 20260505013846 | 61 | 234 | 4.0 | 9.0 | 0.00 | 0.00 | 0.00 | 52 | 1009.1 |
| 20260505013352 | 61 | 230 | 5.0 | 12.0 | 0.00 | 0.00 | 0.00 | 52 | 1009.1 |
| 20260505012858 | 61 | 256 | 2.0 | 12.0 | 0.00 | 0.00 | 0.00 | 51 | 1009.0 |
| 20260505012346 | 61 | 223 | 5.0 | 10.0 | 0.00 | 0.00 | 0.00 | 51 | 1008.9 |
| 20260505011852 | 61 | 215 | 3.0 | 7.0 | 0.00 | 0.00 | 0.00 | 51 | 1008.9 |
| 20260505011359 | 62 | 230 | 4.0 | 9.0 | 0.00 | 0.00 | 0.00 | 50 | 1008.8 |
| 20260505010905 | 62 | 253 | 5.0 | 10.0 | 0.00 | 0.00 | 0.00 | 50 | 1008.7 |
| 20260505010344 | 62 | 229 | 4.0 | 11.0 | 0.00 | 0.00 | 0.00 | 50 | 1008.7 |
| 20260505005854 | 62 | 223 | 5.0 | 15.0 | 0.00 | 0.00 | 0.00 | 50 | 1008.6 |
| 20260505005342 | 62 | 242 | 6.0 | 15.0 | 0.00 | 0.00 | 0.00 | 49 | 1008.4 |
| 20260505004909 | 63 | 237 | 4.0 | 9.0 | 0.00 | 0.00 | 0.00 | 49 | 1008.4 |
| 20260505004416 | 63 | 234 | 2.0 | 9.0 | 0.00 | 0.00 | 0.00 | 49 | 1008.3 |
| 20260505003843 | 63 | 275 | 4.0 | 12.0 | 0.00 | 0.00 | 0.00 | 48 | 1008.1 |
| 20260505003408 | 63 | 272 | 4.0 | 12.0 | 0.00 | 0.00 | 0.00 | 48 | 1008.0 |
| 20260505002854 | 63 | 211 | 3.0 | 8.0 | 0.00 | 0.00 | 0.00 | 48 | 1008.0 |
| 20260505002342 | 64 | 221 | 4.0 | 8.0 | 0.00 | 0.00 | 0.00 | 48 | 1007.8 |
| 20260505001908 | 64 | 221 | 4.0 | 9.0 | 0.00 | 0.00 | 0.00 | 47 | 1007.6 |
| 20260505001355 | 64 | 254 | 4.0 | 9.0 | 0.00 | 0.00 | 0.00 | 47 | 1007.5 |
| 20260505000842 | 64 | 251 | 5.0 | 9.0 | 0.00 | 0.00 | 0.00 | 47 | 1007.3 |
| 20260505000343 | 65 | 227 | 4.0 | 9.0 | 0.00 | 0.00 | 0.00 | 47 | 1007.2 |
| 20260504235852 | 65 | 220 | 3.0 | 8.0 | 0.00 | 0.00 | 0.00 | 46 | 1007.1 |
| 20260504235358 | 65 | 243 | 4.0 | 8.0 | 0.00 | 0.00 | 0.00 | 46 | 1007.1 |
| 20260504234921 | 65 | 218 | 5.0 | 9.0 | 0.00 | 0.00 | 0.00 | 46 | 1007.0 |
| 20260504234402 | 65 | 236 | 5.0 | 11.0 | 0.00 | 0.00 | 0.00 | 45 | 1006.9 |
| 20260504233846 | 66 | 210 | 6.0 | 13.0 | 0.00 | 0.00 | 0.00 | 44 | 1006.8 |
| 20260504233352 | 66 | 224 | 5.0 | 13.0 | 0.00 | 0.00 | 0.00 | 44 | 1006.8 |
| 20260504232858 | 66 | 254 | 5.0 | 14.0 | 0.00 | 0.00 | 0.00 | 44 | 1006.7 |
| 20260504232344 | 67 | 211 | 7.0 | 14.0 | 0.00 | 0.00 | 0.00 | 44 | 1006.5 |
| 20260504231910 | 67 | 308 | 6.0 | 15.0 | 0.00 | 0.00 | 0.00 | 43 | 1006.5 |
| 20260504231354 | 68 | 246 | 8.0 | 15.0 | 0.00 | 0.00 | 0.00 | 42 | 1006.4 |
| 20260504230841 | 68 | 210 | 5.0 | 11.0 | 0.00 | 0.00 | 0.00 | 41 | 1006.2 |
| 20260504230341 | 68 | 221 | 6.0 | 13.0 | 0.00 | 0.00 | 0.00 | 40 | 1006.1 |
| 20260504225853 | 69 | 270 | 5.0 | 14.0 | 0.00 | 0.00 | 0.00 | 40 | 1006.0 |
| 20260504225340 | 69 | 262 | 8.0 | 14.0 | 0.00 | 0.00 | 0.00 | 39 | 1005.9 |
| 20260504224903 | 69 | 242 | 5.0 | 12.0 | 0.00 | 0.00 | 0.00 | 38 | 1005.9 |
| 20260504224349 | 69 | 228 | 4.0 | 13.0 | 0.00 | 0.00 | 0.00 | 38 | 1005.7 |
| 20260504223855 | 70 | 237 | 5.0 | 13.0 | 0.00 | 0.00 | 0.00 | 38 | 1005.7 |
| 20260504223421 | 70 | 242 | 3.0 | 10.0 | 0.00 | 0.00 | 0.00 | 37 | 1005.8 |
| 20260504222845 | 70 | 244 | 5.0 | 14.0 | 0.00 | 0.00 | 0.00 | 36 | 1005.7 |
| 20260504222352 | 71 | 232 | 7.0 | 14.0 | 0.00 | 0.00 | 0.00 | 35 | 1005.6 |
| 20260504221856 | 72 | 218 | 5.0 | 15.0 | 0.00 | 0.00 | 0.00 | 35 | 1005.6 |
| 20260504221403 | 72 | 252 | 6.0 | 10.0 | 0.00 | 0.00 | 0.00 | 33 | 1005.6 |
| 20260504220850 | 73 | 273 | 5.0 | 13.0 | 0.00 | 0.00 | 0.00 | 31 | 1005.5 |
| 20260504220349 | 73 | 257 | 5.0 | 13.0 | 0.00 | 0.00 | 0.00 | 31 | 1005.4 |
| 20260504215859 | 73 | 278 | 4.0 | 13.0 | 0.00 | 0.00 | 0.00 | 31 | 1005.5 |
| 20260504215343 | 73 | 259 | 7.0 | 13.0 | 0.00 | 0.00 | 0.00 | 30 | 1005.6 |
| 20260504214849 | 74 | 259 | 3.0 | 12.0 | 0.00 | 0.00 | 0.00 | 30 | 1005.6 |
| 20260504214357 | 74 | 276 | 5.0 | 16.0 | 0.00 | 0.00 | 0.00 | 30 | 1005.6 |
| 20260504213844 | 74 | 327 | 4.0 | 10.0 | 0.00 | 0.00 | 0.00 | 30 | 1005.6 |
| 20260504213346 | 74 | 299 | 3.0 | 12.0 | 0.00 | 0.00 | 0.00 | 30 | 1005.6 |
| 20260504212910 | 74 | 226 | 6.0 | 12.0 | 0.00 | 0.00 | 0.00 | 30 | 1005.5 |
| 20260504212355 | 73 | 276 | 3.0 | 11.0 | 0.00 | 0.00 | 0.00 | 31 | 1005.5 |
| 20260504211857 | 73 | 281 | 4.0 | 12.0 | 0.00 | 0.00 | 0.00 | 30 | 1005.5 |
| 20260504211345 | 73 | 355 | 5.0 | 11.0 | 0.00 | 0.00 | 0.00 | 31 | 1005.5 |
| 20260504210912 | 74 | 289 | 5.0 | 15.0 | 0.00 | 0.00 | 0.00 | 30 | 1005.5 |
| 20260504210349 | 74 | 263 | 6.0 | 15.0 | 0.00 | 0.00 | 0.00 | 29 | 1005.6 |
| 20260504205858 | 74 | 321 | 2.0 | 10.0 | 0.00 | 0.00 | 0.00 | 30 | 1005.5 |
| 20260504205342 | 74 | 311 | 5.0 | 14.0 | 0.00 | 0.00 | 0.00 | 29 | 1005.6 |
| 20260504204846 | 74 | 301 | 7.0 | 14.0 | 0.00 | 0.00 | 0.00 | 29 | 1005.5 |
| 20260504204351 | 74 | 254 | 5.0 | 13.0 | 0.00 | 0.00 | 0.00 | 29 | 1005.6 |
| 20260504203858 | 74 | 287 | 5.0 | 14.0 | 0.00 | 0.00 | 0.00 | 29 | 1005.7 |
| 20260504203343 | 74 | 248 | 6.0 | 14.0 | 0.00 | 0.00 | 0.00 | 29 | 1005.6 |
| 20260504202850 | 74 | 302 | 4.0 | 17.0 | 0.00 | 0.00 | 0.00 | 29 | 1005.6 |
| 20260504202355 | 74 | 269 | 5.0 | 18.0 | 0.00 | 0.00 | 0.00 | 29 | 1005.6 |
| 20260504201919 | 74 | 243 | 6.0 | 18.0 | 0.00 | 0.00 | 0.00 | 29 | 1005.6 |
| 20260504201344 | 74 | 276 | 6.0 | 12.0 | 0.00 | 0.00 | 0.00 | 29 | 1005.7 |
| 20260504200850 | 74 | 333 | 5.0 | 13.0 | 0.00 | 0.00 | 0.00 | 29 | 1005.6 |
| 20260504200350 | 74 | 294 | 7.0 | 13.0 | 0.00 | 0.00 | 0.00 | 28 | 1005.8 |
| 20260504195839 | 74 | 270 | 3.0 | 12.0 | 0.00 | 0.00 | 0.00 | 29 | 1005.9 |
| 20260504195347 | 73 | 248 | 7.0 | 13.0 | 0.00 | 0.00 | 0.00 | 28 | 1005.8 |
| 20260504194848 | 74 | 324 | 5.0 | 14.0 | 0.00 | 0.00 | 0.00 | 28 | 1005.7 |
| 20260504194415 | 73 | 336 | 6.0 | 16.0 | 0.00 | 0.00 | 0.00 | 28 | 1005.8 |
| 20260504193900 | 73 | 328 | 6.0 | 15.0 | 0.00 | 0.00 | 0.00 | 28 | 1005.8 |
| 20260504193345 | 73 | 250 | 7.0 | 15.0 | 0.00 | 0.00 | 0.00 | 28 | 1005.9 |
| 20260504192912 | 73 | 320 | 5.0 | 13.0 | 0.00 | 0.00 | 0.00 | 28 | 1005.8 |
| 20260504192355 | 73 | 302 | 4.0 | 14.0 | 0.00 | 0.00 | 0.00 | 28 | 1005.9 |
| 20260504191900 | 73 | 304 | 5.0 | 14.0 | 0.00 | 0.00 | 0.00 | 28 | 1005.8 |
| 20260504191347 | 73 | 273 | 7.0 | 18.0 | 0.00 | 0.00 | 0.00 | 27 | 1005.9 |
| 20260504190853 | 73 | 232 | 8.0 | 18.0 | 0.00 | 0.00 | 0.00 | 27 | 1006.0 |
| 20260504190355 | 73 | 265 | 7.0 | 16.0 | 0.00 | 0.00 | 0.00 | 28 | 1006.1 |
| 20260504185844 | 73 | 284 | 5.0 | 12.0 | 0.00 | 0.00 | 0.00 | 28 | 1006.1 |
| 20260504185349 | 72 | 26 | 4.0 | 16.0 | 0.00 | 0.00 | 0.00 | 28 | 1006.1 |
| 20260504184915 | 72 | 279 | 7.0 | 16.0 | 0.00 | 0.00 | 0.00 | 28 | 1006.2 |
| 20260504184419 | 72 | 278 | 7.0 | 16.0 | 0.00 | 0.00 | 0.00 | 27 | 1006.2 |
| 20260504183902 | 72 | 248 | 6.0 | 17.0 | 0.00 | 0.00 | 0.00 | 28 | 1006.2 |
| 20260504183345 | 72 | 275 | 4.0 | 13.0 | 0.00 | 0.00 | 0.00 | 28 | 1006.2 |
| 20260504182853 | 72 | 255 | 7.0 | 13.0 | 0.00 | 0.00 | 0.00 | 28 | 1006.3 |
| 20260504182359 | 72 | 291 | 7.0 | 16.0 | 0.00 | 0.00 | 0.00 | 28 | 1006.4 |
| 20260504181903 | 72 | 312 | 7.0 | 16.0 | 0.00 | 0.00 | 0.00 | 28 | 1006.4 |
| 20260504181349 | 72 | 279 | 5.0 | 23.0 | 0.00 | 0.00 | 0.00 | 29 | 1006.3 |
| 20260504180854 | 72 | 282 | 9.0 | 23.0 | 0.00 | 0.00 | 0.00 | 28 | 1006.5 |
| 20260504180354 | 72 | 239 | 5.0 | 15.0 | 0.00 | 0.00 | 0.00 | 28 | 1006.4 |
| 20260504175846 | 72 | 306 | 6.0 | 14.0 | 0.00 | 0.00 | 0.00 | 29 | 1006.6 |
| 20260504175410 | 72 | 238 | 6.0 | 11.0 | 0.00 | 0.00 | 0.00 | 29 | 1006.6 |
| 20260504174851 | 71 | 294 | 3.0 | 10.0 | 0.00 | 0.00 | 0.00 | 30 | 1006.6 |
| 20260504174416 | 71 | 309 | 5.0 | 14.0 | 0.00 | 0.00 | 0.00 | 29 | 1006.6 |
| 20260504173856 | 71 | 256 | 5.0 | 14.0 | 0.00 | 0.00 | 0.00 | 30 | 1006.8 |
| 20260504173357 | 70 | 313 | 4.0 | 18.0 | 0.00 | 0.00 | 0.00 | 30 | 1006.7 |
| 20260504172902 | 70 | 9 | 9.0 | 22.0 | 0.00 | 0.00 | 0.00 | 30 | 1006.8 |
| 20260504172346 | 70 | 294 | 9.0 | 22.0 | 0.00 | 0.00 | 0.00 | 30 | 1006.8 |
| 20260504171851 | 70 | 321 | 8.0 | 16.0 | 0.00 | 0.00 | 0.00 | 30 | 1006.8 |
| 20260504171359 | 70 | 298 | 6.0 | 17.0 | 0.00 | 0.00 | 0.00 | 30 | 1006.7 |
| 20260504170924 | 70 | 205 | 7.0 | 17.0 | 0.00 | 0.00 | 0.00 | 30 | 1006.7 |
| 20260504170403 | 70 | 306 | 6.0 | 15.0 | 0.00 | 0.00 | 0.00 | 31 | 1006.9 |
| 20260504160412 | 68 | 276 | 5.0 | 20.0 | 0.00 | 0.00 | 0.00 | 34 | 1007.5 |
| 20260504150902 | 68 | 261 | 6.0 | 15.0 | 0.00 | 0.00 | 0.00 | 34 | 1008.1 |
| 20260504150402 | 68 | 298 | 8.0 | 15.0 | 0.00 | 0.00 | 0.00 | 34 | 1008.1 |
| 20260504140903 | 64 | 315 | 4.0 | 14.0 | 0.00 | 0.00 | 0.00 | 39 | 1008.6 |
| 20260504140342 | 64 | 300 | 5.0 | 12.0 | 0.00 | 0.00 | 0.00 | 39 | 1008.6 |
| 20260504130350 | 59 | 291 | 5.0 | 15.0 | 0.00 | 0.00 | 0.00 | 45 | 1009.5 |